• In Hungary
  • List of Countries
  • For 7 days
  • Water Temperature
  • Satellite Maps
  • Weather Map
  • News
  • Weather Widgets
  • user-avatar
    Login

    Hourly Weather Stanislavka

    Today, 19 October, Thursday

    Time Temperature Precipitation Wind Pressure Humidity
    00:00 +15°C° 0 mm 1 mps 737 mmHg 61%
    01:00 +15°C° 0 mm 1 mps 737 mmHg 62%
    02:00 +15°C° 0 mm 1 mps 737 mmHg 61%
    03:00 +14°C° 0 mm 1 mps 737 mmHg 62%
    04:00 +14°C° 0 mm 1 mps 736 mmHg 64%
    05:00 +14°C° 0 mm 1 mps 736 mmHg 65%
    06:00 +14°C° 0 mm 1 mps 736 mmHg 65%
    07:00 +14°C° 0 mm 1 mps 736 mmHg 64%
    08:00 +15°C° 0 mm 1 mps 737 mmHg 62%
    09:00 +17°C° 0 mm 2 mps 737 mmHg 57%
    10:00 +18°C° 0 mm 2 mps 737 mmHg 52%
    11:00 +20°C° 0 mm 2 mps 737 mmHg 47%
    12:00 +21°C° 0 mm 2 mps 737 mmHg 45%
    13:00 +23°C° 0 mm 2 mps 736 mmHg 42%
    14:00 +24°C° 0 mm 2 mps 736 mmHg 41%
    15:00 +21°C° 0 mm 2 mps 736 mmHg 44%
    16:00 +20°C° 0 mm 2 mps 736 mmHg 48%
    17:00 +19°C° 0 mm 2 mps 736 mmHg 51%
    18:00 +19°C° 0 mm 1 mps 736 mmHg 53%
    19:00 +19°C° 0 mm 1 mps 736 mmHg 56%
    20:00 +18°C° 0 mm 1 mps 736 mmHg 58%
    21:00 +16°C° 0 mm 1 mps 736 mmHg 60%
    22:00 +16°C° 0 mm 1 mps 736 mmHg 62%
    23:00 +15°C° 0 mm 1 mps 736 mmHg 65%

    Tomorrow, 20 October, Friday

    Time Temperature Precipitation Wind Pressure Humidity
    00:00 +15°C° 0 mm 1 mps 736 mmHg 67%
    01:00 +14°C° 0 mm 1 mps 736 mmHg 69%
    02:00 +14°C° 0 mm 2 mps 736 mmHg 71%
    03:00 +13°C° 0 mm 2 mps 736 mmHg 74%
    04:00 +13°C° 0 mm 2 mps 736 mmHg 76%
    05:00 +13°C° 0 mm 2 mps 736 mmHg 79%
    06:00 +13°C° 0 mm 2 mps 737 mmHg 80%
    07:00 +13°C° 0 mm 2 mps 737 mmHg 81%
    08:00 +13°C° 0 mm 2 mps 737 mmHg 81%
    09:00 +15°C° 0 mm 2 mps 738 mmHg 75%
    10:00 +16°C° 0 mm 2 mps 738 mmHg 68%
    11:00 +18°C° 0 mm 2 mps 738 mmHg 61%
    12:00 +19°C° 0 mm 2 mps 738 mmHg 58%
    13:00 +19°C° 0 mm 2 mps 738 mmHg 56%
    14:00 +20°C° 0 mm 2 mps 738 mmHg 53%
    15:00 +19°C° 0 mm 2 mps 738 mmHg 58%
    16:00 +18°C° 0 mm 2 mps 738 mmHg 63%
    17:00 +17°C° 0 mm 2 mps 738 mmHg 67%
    18:00 +16°C° 0 mm 2 mps 738 mmHg 72%
    19:00 +14°C° 0 mm 3 mps 738 mmHg 76%
    20:00 +13°C° 0 mm 3 mps 739 mmHg 81%
    21:00 +12°C° 0 mm 3 mps 739 mmHg 82%
    22:00 +11°C° 0 mm 3 mps 739 mmHg 84%
    23:00 +12°C° 0 mm 2 mps 739 mmHg 86%

    Day after tomorrow, 21 October, Saturday

    Time Temperature Precipitation Wind Pressure Humidity
    00:00 +10°C° 0 mm 2 mps 739 mmHg 86%
    01:00 +10°C° 0 mm 2 mps 739 mmHg 87%
    02:00 +10°C° 0 mm 2 mps 739 mmHg 87%
    03:00 +9°C° 0 mm 2 mps 739 mmHg 87%
    04:00 +9°C° 0 mm 2 mps 739 mmHg 88%
    05:00 +9°C° 0 mm 2 mps 739 mmHg 88%
    06:00 +9°C° 0 mm 2 mps 739 mmHg 86%
    07:00 +9°C° 0 mm 2 mps 739 mmHg 83%
    08:00 +9°C° 0 mm 3 mps 739 mmHg 81%
    09:00 +12°C° 0 mm 2 mps 739 mmHg 75%
    10:00 +13°C° 0 mm 2 mps 739 mmHg 68%
    11:00 +15°C° 0 mm 2 mps 739 mmHg 62%
    12:00 +15°C° 0 mm 2 mps 739 mmHg 60%
    13:00 +16°C° 0 mm 2 mps 738 mmHg 58%
    14:00 +16°C° 0 mm 1 mps 738 mmHg 56%
    15:00 +16°C° 0 mm 2 mps 738 mmHg 59%
    16:00 +15°C° 0 mm 2 mps 737 mmHg 61%
    17:00 +14°C° 0 mm 2 mps 737 mmHg 64%
    18:00 +14°C° 0 mm 2 mps 737 mmHg 65%
    19:00 +14°C° 0 mm 2 mps 737 mmHg 65%
    20:00 +12°C° 0 mm 3 mps 737 mmHg 66%
    21:00 +12°C° 0.1 mm 3 mps 737 mmHg 67%
    22:00 +12°C° 0.1 mm 3 mps 737 mmHg 68%
    23:00 +11°C° 0.1 mm 3 mps 737 mmHg 69%

    22 October, Sunday

    Time Temperature Precipitation Wind Pressure Humidity
    00:00 +11°C° 0.3 mm 3 mps 737 mmHg 71%
    01:00 +10°C° 0.3 mm 3 mps 737 mmHg 72%
    02:00 +10°C° 0.3 mm 3 mps 737 mmHg 74%
    03:00 +10°C° 0.2 mm 2 mps 737 mmHg 74%
    04:00 +10°C° 0.2 mm 2 mps 737 mmHg 75%
    05:00 +10°C° 0.2 mm 2 mps 737 mmHg 75%
    06:00 +10°C° 0.1 mm 3 mps 737 mmHg 75%
    07:00 +9°C° 0.1 mm 3 mps 737 mmHg 74%
    08:00 +9°C° 0.1 mm 3 mps 737 mmHg 73%
    09:00 +9°C° 0.1 mm 3 mps 737 mmHg 72%
    10:00 +9°C° 0.1 mm 3 mps 737 mmHg 70%
    11:00 +9°C° 0.1 mm 3 mps 738 mmHg 69%
    12:00 +10°C° 0 mm 3 mps 738 mmHg 68%
    13:00 +10°C° 0 mm 3 mps 738 mmHg 66%
    14:00 +10°C° 0 mm 3 mps 737 mmHg 65%
    15:00 +10°C° 0 mm 3 mps 737 mmHg 66%
    16:00 +10°C° 0 mm 3 mps 737 mmHg 66%
    17:00 +9°C° 0 mm 3 mps 737 mmHg 67%
    18:00 +9°C° 0 mm 3 mps 737 mmHg 67%
    19:00 +9°C° 0 mm 3 mps 738 mmHg 67%
    20:00 +8°C° 0 mm 3 mps 738 mmHg 67%
    21:00 +9°C° 0 mm 3 mps 738 mmHg 65%
    22:00 +9°C° 0 mm 3 mps 738 mmHg 64%
    23:00 +9°C° 0 mm 3 mps 738 mmHg 62%

    23 October, Monday

    Time Temperature Precipitation Wind Pressure Humidity
    00:00 +9°C° 0 mm 3 mps 738 mmHg 61%
    01:00 +9°C° 0 mm 3 mps 738 mmHg 60%
    02:00 +9°C° 0 mm 3 mps 738 mmHg 59%
    03:00 +8°C° 0 mm 4 mps 737 mmHg 59%
    04:00 +8°C° 0 mm 4 mps 737 mmHg 59%
    05:00 +8°C° 0 mm 4 mps 737 mmHg 58%
    06:00 +8°C° 0 mm 4 mps 737 mmHg 60%
    07:00 +8°C° 0 mm 4 mps 737 mmHg 62%
    08:00 +8°C° 0 mm 5 mps 737 mmHg 64%
    09:00 +8°C° 0.1 mm 5 mps 737 mmHg 66%
    10:00 +8°C° 0.1 mm 5 mps 737 mmHg 68%
    11:00 +8°C° 0.1 mm 6 mps 737 mmHg 71%
    12:00 +9°C° 0 mm 6 mps 737 mmHg 68%
    13:00 +9°C° 0 mm 6 mps 737 mmHg 65%
    14:00 +9°C° 0 mm 6 mps 737 mmHg 62%
    15:00 +9°C° 0 mm 5 mps 737 mmHg 60%
    16:00 +9°C° 0 mm 5 mps 737 mmHg 59%
    17:00 +10°C° 0 mm 4 mps 737 mmHg 57%
    18:00 +10°C° 0 mm 4 mps 737 mmHg 56%
    19:00 +8°C° 0 mm 5 mps 738 mmHg 55%
    20:00 +8°C° 0 mm 5 mps 738 mmHg 54%
    21:00 +8°C° 0 mm 5 mps 738 mmHg 53%
    22:00 +8°C° 0 mm 5 mps 738 mmHg 52%
    23:00 +8°C° 0 mm 5 mps 738 mmHg 51%

    24 October, Tuesday

    Time Temperature Precipitation Wind Pressure Humidity
    00:00 +7°C° 0 mm 4 mps 739 mmHg 50%
    01:00 +7°C° 0 mm 4 mps 739 mmHg 49%
    02:00 +7°C° 0 mm 4 mps 739 mmHg 47%
    03:00 +7°C° 0 mm 4 mps 739 mmHg 47%
    04:00 +6°C° 0 mm 4 mps 740 mmHg 46%
    05:00 +6°C° 0 mm 4 mps 740 mmHg 46%
    06:00 +6°C° 0 mm 4 mps 740 mmHg 46%
    07:00 +5°C° 0 mm 4 mps 741 mmHg 47%
    08:00 +5°C° 0 mm 4 mps 741 mmHg 47%
    09:00 +6°C° 0 mm 4 mps 741 mmHg 44%
    10:00 +7°C° 0 mm 4 mps 741 mmHg 41%
    11:00 +8°C° 0 mm 5 mps 742 mmHg 38%
    12:00 +9°C° 0 mm 5 mps 742 mmHg 36%
    13:00 +9°C° 0 mm 5 mps 742 mmHg 34%
    14:00 +10°C° 0 mm 5 mps 742 mmHg 33%
    15:00 +10°C° 0 mm 4 mps 742 mmHg 35%
    16:00 +8°C° 0 mm 4 mps 742 mmHg 36%
    17:00 +7°C° 0 mm 4 mps 742 mmHg 38%
    18:00 +6°C° 0 mm 4 mps 742 mmHg 39%
    19:00 +6°C° 0 mm 4 mps 743 mmHg 40%
    20:00 +5°C° 0 mm 5 mps 743 mmHg 42%
    21:00 +3°C° 0 mm 5 mps 744 mmHg 43%
    22:00 +4°C° 0 mm 4 mps 744 mmHg 44%
    23:00 +4°C° 0 mm 4 mps 744 mmHg 46%
    Show more